Overview Statistics Trail Chart Weather Telemetry Raw packets
 

This is the latest recevied weather packets stored in our database for station/object KN6DHD. If no packets are shown the sender has not sent any weather packets the latest 10 day(s).

<< 55 56 57 58 59 60 61 >>
Time Temp. Humidity Pressure Rain* Wind** Luminosity Snow
1777402818 20° C 58% 1020.8 hPa 0 mm - 511 W/m² -
1777402515 20° C 59% 1020.8 hPa 0 mm - 597 W/m² -
1777402211 19.44° C 62% 1020.7 hPa 0 mm - 618 W/m² -
1777401906 18.89° C 65% 1020.8 hPa 0 mm - 612 W/m² -
1777401605 18.89° C 66% 1020.9 hPa 0 mm - 152 W/m² -
1777401302 18.89° C 64% 1021 hPa 0 mm - 68 W/m² -
1777400996 18.89° C 67% 1021 hPa 0 mm - 66 W/m² -
1777400693 18.33° C 67% 1021 hPa 0 mm - 67 W/m² -
1777400391 18.33° C 67% 1020.9 hPa 0 mm - 63 W/m² -
1777400086 18.33° C 67% 1021.1 hPa 0 mm - 62 W/m² -
1777399789 18.33° C 67% 1021 hPa 0 mm - 62 W/m² -
1777399480 17.78° C 69% 1021 hPa 0 mm - 70 W/m² -
1777399178 17.22° C 70% 1021 hPa 0 mm - 72 W/m² -
1777398875 17.22° C 68% 1021.1 hPa 0 mm - 59 W/m² -
1777398572 17.22° C 69% 1021.3 hPa 0 mm - 58 W/m² -
1777398268 17.22° C 71% 1021.1 hPa 0 mm - 59 W/m² -
1777397965 16.67° C 70% 1021.2 hPa 0 mm - 59 W/m² -
1777397661 16.67° C 73% 1021.2 hPa 0 mm - 75 W/m² -
1777397357 16.67° C 73% 1021 hPa 0 mm - 59 W/m² -
1777397054 16.11° C 73% 1021.2 hPa 0 mm - 320 W/m² -
1777396751 16.11° C 74% 1021 hPa 0 mm - 58 W/m² -
1777396447 16.11° C 75% 1021.1 hPa 0 mm - 58 W/m² -
1777396144 15.56° C 76% 1021.4 hPa 0 mm - 57 W/m² -
1777395840 15.56° C 76% 1021.1 hPa 0 mm - 57 W/m² -
1777395535 15.56° C 78% 1021.3 hPa 0 mm - 57 W/m² -

* Rain latest hour (hover to see other rain measurements)
** Current wind speed in m/s (hover to see current wind gust speed)